Location: Br�ttisellen
(47.4227°N, 8.6287°E)
Time: 02:36:20
(UTC+00:00)

COSMOS 2406 - Pass Details

Date: 09 April 2020
Orbit: 842 x 865 km, 71.0° (Epoch: 06 June)

Event Time Altitude Azimuth Distance (km) Brightness Sun altitude
Exits shadow 20:54:57 30° 210° (SSW) 1,468 4.2 -25.2°
Maximum altitude 20:57:52 85° 297° (WNW) 859 3.1 -25.5°
Drops below altitude 10° 21:03:37 10° 26° (NNE) 2,492 5.9 -26.2°
Sets 21:06:05 0° 28° (NNE) 3,435 6.7 -26.4°
